Weather History for Harlingen, TX

Change the Weather History Date:

Wednesday, February 5, 2014

  Actual Average Record
Temperature  
Mean Temperature 51 °F 62 °F  
Max Temperature 62 °F 72 °F 89 °F (1922)
Min Temperature 40 °F 52 °F 28 °F (2011)
Degree Days  
Heating Degree Days 14 5  
Month to date heating degree days 44 25  
Since 1 July heating degree days 677 473  
Cooling Degree Days 0 2  
Month to date cooling degree days 10 10  
Year to date cooling degree days 29 59  
Moisture  
Dew Point 45 °F    
Average Humidity 84    
Maximum Humidity 100    
Minimum Humidity 67    
Precipitation  
Precipitation 0.00 in 0.05 in 2.54 in (1991)
Month to date precipitation T 0.28  
Year to date precipitation 0.84 1.34  
Sea Level Pressure  
Sea Level Pressure 30.16 in    
Wind  
Wind Speed 13 mph (North)    
Max Wind Speed 29 mph    
Max Gust Speed 35 mph    
Visibility 6 miles    
Events Fog    
T = Trace of Precipitation, MM = Missing Value Source: NWS Daily Summary

Daily Weather History Graph

Daily Weather History Graph

Search for Another Location

Airport:

Trip Planner

Search our weather history database for the weather conditions in past years. The results will help you decide how hot, cold, wet, or windy it might be!

Date:

Astronomy

Feb. 05, 2014 Rise Set
Actual Time 7:12 AM CST 6:16 PM CST
Civil Twilight 6:48 AM CST 6:40 PM CST
Nautical Twilight 6:21 AM CST 7:08 PM CST
Astronomical Twilight 5:54 AM CST 7:35 PM CST
Moon 11:09 AM CST (2/5) No Moon Set
Length of Visible Light 11h 51m
Length of Day
11h 03m
Waxing Crescent, 39% of the Moon is Illuminated
Feb 5
Waxing Crescent
Feb 6
First Quarter
Feb 14
Full
Feb 22
Last Quarter
Mar 1
New

Hourly Weather History & Observations

Time (CST) Temp. Windchill Dew Point Humidity Pressure Visibility Wind Dir Wind Speed Gust Speed Precip Events Conditions
12:08 AM 44.6 °F - 42.8 °F 93% 30.05 in 0.5 mi Calm Calm - N/A Fog Fog
12:33 AM 42.8 °F - 42.8 °F 100% 30.05 in 0.2 mi Calm Calm - N/A Fog Fog
12:41 AM 42.8 °F - 41.0 °F 93% 30.05 in 0.8 mi Calm Calm - N/A   Mist
12:52 AM 43.0 °F - 42.1 °F 97% 30.05 in 0.5 mi Calm Calm - 0.01 in Fog Fog
12:59 AM 42.8 °F - 41.0 °F 93% 30.06 in 0.2 mi Calm Calm - N/A Fog Fog
1:30 AM 42.8 °F - 41.0 °F 93% 30.06 in 0.5 mi Calm Calm - N/A Fog Fog
1:52 AM 42.1 °F 40.2 °F 41.0 °F 96% 30.07 in 0.8 mi NNW 3.5 mph - N/A   Mist
2:52 AM 39.9 °F 36.7 °F 39.9 °F 100% 30.06 in 0.5 mi NNW 4.6 mph - N/A Fog Fog
3:40 AM 41.0 °F 38.0 °F 39.2 °F 93% 30.07 in 0.5 mi WNW 4.6 mph - N/A Fog Fog
3:52 AM 42.1 °F 39.2 °F 41.0 °F 96% 30.08 in 0.8 mi West 4.6 mph - N/A   Mostly Cloudy
4:03 AM 42.8 °F 40.1 °F 41.0 °F 93% 30.08 in 1.2 mi West 4.6 mph - N/A   Mostly Cloudy
4:17 AM 42.8 °F 40.1 °F 41.0 °F 93% 30.08 in 1.2 mi West 4.6 mph - N/A   Mostly Cloudy
4:34 AM 42.8 °F 40.1 °F 42.8 °F 100% 30.08 in 0.8 mi West 4.6 mph - N/A   Mostly Cloudy
4:52 AM 41.0 °F 38.0 °F 39.9 °F 96% 30.09 in 0.5 mi WNW 4.6 mph - N/A Fog Fog
4:59 AM 41.0 °F 39.0 °F 39.2 °F 93% 30.09 in 0.5 mi WNW 3.5 mph - N/A Fog Fog
5:13 AM 39.2 °F 35.0 °F 39.2 °F 100% 30.10 in 0.8 mi WNW 5.8 mph - N/A   Mist
5:52 AM 41.0 °F 37.1 °F 39.9 °F 96% 30.12 in 0.5 mi WNW 5.8 mph - N/A Fog Fog
6:13 AM 42.8 °F 39.3 °F 42.8 °F 100% 30.14 in 1.2 mi NW 5.8 mph - N/A   Overcast
6:19 AM 44.6 °F 41.4 °F 42.8 °F 93% 30.14 in 3.0 mi NW 5.8 mph - N/A   Overcast
6:52 AM 46.0 °F 41.9 °F 45.0 °F 96% 30.16 in 9.0 mi NNW 8.1 mph - N/A   Overcast
7:52 AM 48.9 °F - 48.0 °F 97% 30.19 in 10.0 mi North 11.5 mph - N/A   Overcast
8:09 AM 50.0 °F - 48.2 °F 94% 30.18 in 10.0 mi North 13.8 mph - N/A   Overcast
8:52 AM 54.0 °F - 51.1 °F 90% 30.19 in 10.0 mi North 12.7 mph - N/A   Mostly Cloudy
9:37 AM 57.2 °F - 51.8 °F 82% 30.21 in 10.0 mi North 18.4 mph 27.6 mph N/A   Partly Cloudy
9:52 AM 59.0 °F - 53.1 °F 81% 30.22 in 10.0 mi NNE 19.6 mph 26.5 mph N/A   Mostly Cloudy
10:06 AM 60.8 °F - 53.6 °F 77% 30.22 in 10.0 mi NNE 21.9 mph 27.6 mph N/A   Mostly Cloudy
10:26 AM 59.0 °F - 51.8 °F 77% 30.23 in 10.0 mi NNE 20.7 mph 32.2 mph N/A   Mostly Cloudy
10:52 AM 62.1 °F - 51.1 °F 67% 30.23 in 10.0 mi NNE 25.3 mph 31.1 mph N/A   Overcast
11:00 AM 60.8 °F - 50.0 °F 68% 30.24 in 10.0 mi NE 25.3 mph 32.2 mph N/A   Overcast
11:52 AM 57.9 °F - 48.9 °F 72% 30.23 in 10.0 mi NE 25.3 mph 33.4 mph N/A   Overcast
12:52 PM 57.9 °F - 48.0 °F 70% 30.22 in 10.0 mi NE 25.3 mph 34.5 mph N/A   Overcast
1:20 PM 57.2 °F - 48.2 °F 72% 30.22 in 10.0 mi NE 23.0 mph 29.9 mph N/A   Overcast
1:52 PM 55.9 °F - 46.9 °F 72% 30.20 in 10.0 mi NNE 25.3 mph 32.2 mph N/A   Overcast
2:52 PM 53.1 °F - 45.0 °F 74% 30.20 in 10.0 mi NNE 19.6 mph 31.1 mph N/A   Overcast
3:52 PM 52.0 °F - 44.1 °F 74% 30.21 in 10.0 mi NNE 19.6 mph - N/A   Overcast
4:52 PM 52.0 °F - 44.1 °F 74% 30.22 in 10.0 mi NNE 15.0 mph 23.0 mph N/A   Overcast
5:52 PM 52.0 °F - 44.1 °F 74% 30.23 in 10.0 mi NNE 13.8 mph - N/A   Overcast
6:52 PM 51.1 °F - 44.1 °F 77% 30.24 in 10.0 mi North 13.8 mph 21.9 mph N/A   Overcast
7:36 PM 51.8 °F - 44.6 °F 76% 30.25 in 10.0 mi NNE 15.0 mph - N/A   Overcast
7:52 PM 52.0 °F - 44.1 °F 74% 30.25 in 10.0 mi NNE 12.7 mph 21.9 mph N/A   Overcast
8:52 PM 52.0 °F - 45.0 °F 77% 30.25 in 10.0 mi North 8.1 mph - N/A   Overcast
9:52 PM 51.1 °F - 44.1 °F 77% 30.26 in 10.0 mi NNE 13.8 mph - N/A   Overcast
10:52 PM 51.1 °F - 43.0 °F 74% 30.26 in 10.0 mi North 13.8 mph - N/A   Overcast
11:52 PM 51.1 °F - 41.0 °F 68% 30.26 in 10.0 mi NNE 16.1 mph 24.2 mph N/A   Overcast